Overview Statistics Trail Chart Weather Telemetry Raw packets
 

This is the latest recevied weather packets stored in our database for station/object 4S6DRJ-13. If no packets are shown the sender has not sent any weather packets the latest 10 day(s).

<< 223 224 225 226 227 228 229 >>
Time Temp. Humidity Pressure Rain* Wind** Luminosity Snow
1788136815 27.78° C 83% 1009.3 hPa 0 mm 0.45 m/s, 273° 8 W/m² -
1788136754 27.78° C 83% 1009.2 hPa 0 mm 1.34 m/s, 209° 7 W/m² -
1788136693 27.78° C 83% 1009.2 hPa 0 mm 1.34 m/s, 6° 6 W/m² -
1788136632 27.78° C 83% 1009.1 hPa 0 mm 0.45 m/s, 226° 5 W/m² -
1788136571 27.78° C 83% 1009.1 hPa 0 mm 0.89 m/s, 229° 5 W/m² -
1788136510 27.78° C 83% 1009.1 hPa 0 mm 0 m/s 4 W/m² -
1788136449 27.78° C 83% 1009.1 hPa 0 mm 0 m/s 3 W/m² -
1788136387 27.78° C 83% 1009.1 hPa 0 mm 0.89 m/s, 209° 3 W/m² -
1788136266 27.78° C 83% 1009.1 hPa 0 mm 0.45 m/s, 296° 2 W/m² -
1788136204 27.78° C 83% 1009.1 hPa 0 mm 0.89 m/s, 263° 2 W/m² -
1788136143 27.78° C 83% 1009 hPa 0 mm 0 m/s 1 W/m² -
1788136082 27.78° C 83% 1009.1 hPa 0 mm 0.45 m/s, 234° 1 W/m² -
1788136021 27.78° C 83% 1009.1 hPa 0 mm 0.89 m/s, 273° 1 W/m² -
1788135960 27.78° C 83% 1009.2 hPa 0 mm 0.45 m/s, 1° 1 W/m² -
1788135899 27.78° C 84% 1009.1 hPa 0 mm 0.89 m/s, 302° 1 W/m² -
1788135838 27.78° C 84% 1009.1 hPa 0 mm 0.89 m/s, 245° 1 W/m² -
1788135777 27.78° C 84% 1009.2 hPa 0 mm 1.79 m/s, 324° 0 W/m² -
1788135716 27.78° C 84% 1009.1 hPa 0 mm 0.45 m/s, 264° 0 W/m² -
1788135655 27.78° C 84% 1009.2 hPa 0 mm 1.79 m/s, 314° 0 W/m² -
1788135595 27.78° C 84% 1009.3 hPa 0 mm 0.45 m/s, 282° 0 W/m² -
1788135534 27.78° C 84% 1009.2 hPa 0 mm 1.34 m/s, 326° 0 W/m² -
1788135472 27.78° C 84% 1009.1 hPa 0 mm 0.89 m/s, 285° 0 W/m² -
1788135412 27.78° C 84% 1009.4 hPa 0 mm 0.89 m/s, 256° 0 W/m² -
1788135351 27.78° C 84% 1009.3 hPa 0 mm 1.34 m/s, 243° 0 W/m² -
1788135290 27.78° C 85% 1009.2 hPa 0 mm 1.79 m/s, 314° 0 W/m² -

* Rain latest hour (hover to see other rain measurements)
** Current wind speed in m/s (hover to see current wind gust speed)